Location: Unspecified
(22.6800°N, 112.2000°E)
Time: 11:54:14
(UTC+08:00)

Tiros 1 despin weight - Pass Details

Date: 08 August 2021
Orbit: 593 x 641 km, 48.2° (Epoch: 26 September)

Event Time Altitude Azimuth Distance (km) Brightness Sun altitude
Rises 19:28:08 0° 297° (WNW) 2,928 ? -5.2°
Reaches altitude 10° 19:30:56 10° 281° (W) 2,012 ? -5.8°
Maximum altitude 19:34:24 21° 232° (SW) 1,413 ? -6.6°
Drops below altitude 10° 19:37:51 10° 183° (S) 1,988 ? -7.3°
Sets 19:40:36 0° 167° (SSE) 2,883 ? -7.9°
